Location: Stoke Bliss
(52.2667°N, 2.5167°W)
Time: 18:46:53
(UTC+00:00)

Cosmos 1703 Rocket - Pass Details

Date: 03 March 2021
Orbit: 604 x 634 km, 82.5° (Epoch: 16 April)

Event Time Altitude Azimuth Distance (km) Brightness Sun altitude
Rises 18:45:48 0° 354° (N) 2,920 7.1 -8.8°
Reaches altitude 10° 18:48:11 10° 2° (N) 2,003 6.2 -9.2°
Maximum altitude 18:52:20 38° 71° (ENE) 948 4.1 -9.8°
Drops below altitude 10° 18:56:25 10° 141° (SE) 1,971 5.7 -10.4°
Sets 18:58:45 0° 149° (SSE) 2,866 6.6 -10.8°
